TimeAKST,TemperatureF,Dew PointF,Humidity,Sea Level PressureIn,VisibilityMPH,Wind Direction,Wind SpeedMPH,Gust SpeedMPH,PrecipitationIn,Events,Conditions,WindDirDegrees,DateUTC
12:46 AM,-9.4,-13.0,84,29.62,8.0,SSE,6.9,-,N/A,,Overcast,150,2013-02-15 09:46:00
12:58 AM,-9.9,-13.0,86,29.65,7.0,SSE,4.6,-,0.00,Snow,Light Snow,160,2013-02-15 09:58:00
1:58 AM,-9.0,-11.9,87,29.68,6.0,SSW,5.8,-,0.00,Snow,Light Snow,200,2013-02-15 10:58:00
3:11 AM,-9.4,-11.2,92,29.66,4.0,South,4.6,-,0.00,Snow,Light Snow,190,2013-02-15 12:11:00
3:17 AM,-9.4,-11.2,92,29.66,5.0,South,4.6,-,0.00,Snow,Light Snow,180,2013-02-15 12:17:00
3:58 AM,-9.0,-11.9,87,29.71,5.0,South,5.8,-,0.00,Snow,Light Snow,180,2013-02-15 12:58:00
4:24 AM,-9.4,-11.2,92,29.68,7.0,South,6.9,-,0.00,Snow,Light Snow,170,2013-02-15 13:24:00
4:58 AM,-7.1,-9.9,87,29.73,2.5,South,5.8,-,0.00,Snow,Light Snow,190,2013-02-15 13:58:00
5:04 AM,-7.6,-9.4,92,29.69,3.0,South,5.8,-,0.00,Snow,Light Snow,190,2013-02-15 14:04:00
5:58 AM,-7.1,-9.9,87,29.74,5.0,South,6.9,-,0.00,Snow,Light Snow,180,2013-02-15 14:58:00
6:58 AM,-8.0,-11.0,86,29.75,5.0,SSW,6.9,-,0.00,Snow,Light Snow,200,2013-02-15 15:58:00
7:58 AM,-7.1,-9.9,87,29.77,4.0,South,6.9,-,0.00,Snow,Light Snow,170,2013-02-15 16:58:00
8:14 AM,-7.6,-9.4,92,29.73,4.0,SSE,5.8,-,0.00,Snow,Light Snow,160,2013-02-15 17:14:00
8:46 AM,-7.6,-11.2,84,29.74,5.0,SE,4.6,-,0.00,Snow,Light Snow,140,2013-02-15 17:46:00
8:51 AM,-7.6,-11.2,84,29.74,6.0,SSE,4.6,-,0.00,Snow,Light Snow,150,2013-02-15 17:51:00
8:58 AM,-8.0,-11.0,86,29.78,7.0,SE,4.6,-,0.00,Snow,Light Snow,140,2013-02-15 17:58:00
9:04 AM,-7.6,-11.2,84,29.75,6.0,SE,5.8,-,0.00,Snow,Light Snow,130,2013-02-15 18:04:00
9:08 AM,-7.6,-11.2,84,29.75,5.0,SE,5.8,-,0.00,Snow,Light Snow,130,2013-02-15 18:08:00
9:58 AM,-8.0,-11.9,83,29.80,5.0,East,4.6,-,0.00,Snow,Light Snow,90,2013-02-15 18:58:00
10:58 AM,-8.0,-11.9,83,29.81,5.0,East,6.9,-,0.00,Snow,Light Snow,90,2013-02-15 19:58:00
11:58 AM,-5.1,-8.0,87,29.83,5.0,ENE,3.5,-,0.00,,Overcast,70,2013-02-15 20:58:00
12:49 PM,-2.2,-7.6,78,29.81,2.5,East,4.6,-,0.00,Snow,Light Snow,100,2013-02-15 21:49:00
12:58 PM,-2.9,-6.0,87,29.85,2.5,East,4.6,-,0.00,Snow,Light Snow,100,2013-02-15 21:58:00
1:19 PM,-2.2,-5.8,85,29.81,3.0,East,4.6,-,0.00,Snow,Light Snow,100,2013-02-15 22:19:00
1:58 PM,-2.0,-5.1,87,29.87,3.0,East,4.6,-,0.00,Snow,Light Snow,100,2013-02-15 22:58:00
2:06 PM,-2.2,-5.8,85,29.83,2.5,East,3.5,-,0.00,Snow,Light Snow,100,2013-02-15 23:06:00
2:16 PM,-0.4,-5.8,78,29.83,3.0,East,3.5,-,0.00,Snow,Light Snow,100,2013-02-15 23:16:00
2:58 PM,-0.9,-5.1,83,29.88,3.0,East,4.6,-,0.00,Snow,Light Snow,100,2013-02-15 23:58:00
3:49 PM,-2.2,-5.8,85,29.86,4.0,SSE,4.6,-,0.00,Snow,Light Snow,150,2013-02-16 00:49:00
3:58 PM,-2.0,-6.0,83,29.90,5.0,SSE,3.5,-,0.00,Snow,Light Snow,160,2013-02-16 00:58:00
4:58 PM,-0.9,-6.0,79,29.92,8.0,SE,4.6,-,0.00,,Mostly Cloudy,130,2013-02-16 01:58:00
5:58 PM,-5.1,-9.0,83,29.93,5.0,East,4.6,-,N/A,,Mostly Cloudy,80,2013-02-16 02:58:00
6:58 PM,-6.0,-9.9,83,29.95,5.0,ENE,5.8,-,N/A,,Overcast,60,2013-02-16 03:58:00
7:58 PM,-8.0,-11.9,83,29.96,5.0,North,6.9,-,0.00,Snow,Light Snow,10,2013-02-16 04:58:00
8:03 PM,-7.6,-11.2,84,29.92,4.0,North,8.1,-,0.00,Snow,Light Snow,10,2013-02-16 05:03:00
8:26 PM,-9.4,-13.0,84,29.93,8.0,North,8.1,-,0.00,Snow,Light Snow,360,2013-02-16 05:26:00
8:58 PM,-9.9,-14.1,82,29.98,9.0,North,8.1,-,0.00,Snow,Light Snow,10,2013-02-16 05:58:00
9:58 PM,-9.9,-14.1,82,30.00,7.0,North,8.1,-,0.00,Snow,Light Snow,10,2013-02-16 06:58:00
10:18 PM,-9.4,-14.8,77,29.96,5.0,North,8.1,-,0.00,Snow,Light Snow,10,2013-02-16 07:18:00
10:30 PM,-9.4,-14.8,77,29.97,7.0,North,8.1,-,0.00,Snow,Light Snow,360,2013-02-16 07:30:00
10:58 PM,-11.9,-16.1,82,30.02,9.0,North,10.4,-,0.00,,Clear,360,2013-02-16 07:58:00
11:58 PM,-11.9,-16.1,82,30.04,10.0,North,10.4,-,N/A,,Clear,360,2013-02-16 08:58:00